�������l�o���
Date,Time,MP-1(��Sv/h),MP-2(��Sv/h),MP-3(��Sv/h),MP-4(��Sv/h),MP-5(��Sv/h),MP-6(��Sv/h),MP-7(��Sv/h),MP-8(��Sv/h),����,����(m/s),���J
2020/06/18,00:00,0.714,1.029,0.650,1.259,0.906,0.406,0.703,0.654,��,6.8,��
2020/06/18,00:10,0.715,1.027,0.650,1.263,0.906,0.405,0.701,0.655,��,6.9,��
2020/06/18,00:20,0.716,1.029,0.650,1.260,0.905,0.406,0.699,0.654,��,7.0,��
2020/06/18,00:30,0.714,1.027,0.648,1.260,0.905,0.406,0.701,0.655,��,7.0,��
2020/06/18,00:40,0.716,1.028,0.648,1.261,0.907,0.406,0.700,0.654,��,6.9,��
2020/06/18,00:50,0.715,1.026,0.649,1.262,0.905,0.407,0.703,0.655,��,6.8,��
2020/06/18,01:00,0.713,1.028,0.650,1.261,0.907,0.406,0.701,0.653,��,7.1,��
2020/06/18,01:10,0.716,1.030,0.648,1.261,0.905,0.406,0.701,0.654,��,6.0,��
2020/06/18,01:20,0.715,1.030,0.646,1.262,0.906,0.406,0.703,0.654,��,4.8,��
2020/06/18,01:30,0.715,1.029,0.648,1.257,0.906,0.405,0.700,0.653,��,5.1,��
2020/06/18,01:40,0.717,1.029,0.648,1.260,0.906,0.406,0.701,0.655,��,5.3,��
2020/06/18,01:50,0.717,1.028,0.649,1.259,0.903,0.407,0.702,0.654,��,5.0,��
2020/06/18,02:00,0.717,1.028,0.649,1.258,0.906,0.406,0.703,0.654,��,4.6,��
2020/06/18,02:10,0.715,1.027,0.648,1.260,0.907,0.405,0.702,0.654,��,5.2,��
2020/06/18,02:20,0.718,1.028,0.648,1.259,0.906,0.405,0.701,0.655,��,5.4,��
2020/06/18,02:30,0.716,1.027,0.648,1.259,0.907,0.406,0.703,0.654,��,5.3,��
2020/06/18,02:40,0.717,1.026,0.647,1.260,0.906,0.407,0.701,0.654,��,5.3,��
2020/06/18,02:50,0.717,1.026,0.648,1.263,0.906,0.407,0.701,0.656,��,5.3,��
2020/06/18,03:00,0.718,1.028,0.647,1.262,0.906,0.406,0.704,0.654,��,5.2,��
2020/06/18,03:10,0.718,1.027,0.648,1.260,0.906,0.407,0.702,0.654,��,5.4,��
2020/06/18,03:20,0.718,1.025,0.648,1.260,0.905,0.406,0.702,0.654,��,5.0,��
2020/06/18,03:30,0.716,1.026,0.648,1.259,0.907,0.406,0.703,0.655,��,5.0,��
2020/06/18,03:40,0.717,1.026,0.648,1.260,0.905,0.405,0.702,0.654,��,4.9,��
2020/06/18,03:50,0.718,1.028,0.646,1.259,0.909,0.407,0.702,0.653,��쐼,4.1,��
2020/06/18,04:00,0.718,1.028,0.648,1.261,0.905,0.405,0.702,0.655,��쐼,3.7,��
2020/06/18,04:10,0.717,1.025,0.648,1.260,0.906,0.405,0.702,0.655,��,3.6,��
2020/06/18,04:20,0.716,1.026,0.646,1.260,0.904,0.406,0.702,0.655,��쐼,3.7,��
2020/06/18,04:30,0.717,1.023,0.648,1.261,0.906,0.407,0.702,0.654,��쐼,3.7,��
2020/06/18,04:40,0.716,1.027,0.648,1.262,0.906,0.406,0.702,0.654,��쐼,2.6,��
2020/06/18,04:50,0.716,1.029,0.647,1.260,0.906,0.405,0.703,0.653,�쐼,2.0,��
2020/06/18,05:00,0.717,1.024,0.646,1.259,0.906,0.405,0.703,0.656,���쐼,2.0,��
2020/06/18,05:10,0.717,1.028,0.648,1.260,0.906,0.404,0.702,0.656,���쐼,1.2,��
2020/06/18,05:20,0.717,1.026,0.649,1.259,0.906,0.404,0.704,0.654,��,1.2,��
2020/06/18,05:30,0.720,1.028,0.648,1.258,0.906,0.405,0.703,0.656,���k��,0.9,��
2020/06/18,05:40,0.719,1.027,0.648,1.259,0.906,0.405,0.704,0.656,�k��,2.3,��
2020/06/18,05:50,0.718,1.027,0.649,1.260,0.907,0.406,0.702,0.655,�k��,1.5,��
2020/06/18,06:00,0.718,1.029,0.648,1.262,0.909,0.406,0.703,0.655,�k��,1.9,��
2020/06/18,06:10,0.719,1.027,0.649,1.263,0.907,0.404,0.703,0.656,�k��,2.3,��
2020/06/18,06:20,0.719,1.029,0.651,1.260,0.907,0.406,0.703,0.655,���k��,1.5,��
2020/06/18,06:30,0.718,1.028,0.649,1.261,0.908,0.405,0.704,0.655,�k�k��,1.2,��
2020/06/18,06:40,0.718,1.026,0.648,1.260,0.904,0.405,0.704,0.656,�k�k��,1.2,��
2020/06/18,06:50,0.717,1.025,0.650,1.260,0.907,0.406,0.703,0.654,�k,1.7,��
2020/06/18,07:00,0.719,1.026,0.649,1.261,0.907,0.404,0.703,0.655,�k�k��,1.2,��
2020/06/18,07:10,0.719,1.025,0.648,1.261,0.905,0.405,0.702,0.654,�k,0.9,��
2020/06/18,07:20,0.718,1.025,0.649,1.263,0.904,0.404,0.703,0.655,�k�k��,0.9,��
2020/06/18,07:30,0.717,1.024,0.649,1.263,0.906,0.403,0.701,0.654,�k��,0.9,��
2020/06/18,07:40,0.715,1.023,0.649,1.260,0.907,0.403,0.702,0.655,���k��,0.9,��
2020/06/18,07:50,0.716,1.025,0.650,1.260,0.904,0.403,0.701,0.654,�k��,1.1,��
2020/06/18,08:00,0.716,1.022,0.650,1.262,0.905,0.403,0.701,0.654,�k��,2.0,�L
2020/06/18,08:10,0.717,1.022,0.648,1.260,0.908,0.404,0.702,0.654,�k��,2.6,��
2020/06/18,08:20,0.716,1.023,0.652,1.261,0.904,0.403,0.702,0.652,�k��,2.5,��
2020/06/18,08:30,0.715,1.021,0.654,1.260,0.906,0.404,0.702,0.653,�k��,1.7,��
2020/06/18,08:40,0.717,1.023,0.654,1.262,0.906,0.403,0.701,0.653,���k��,2.0,��
2020/06/18,08:50,0.715,1.022,0.653,1.262,0.906,0.404,0.702,0.655,��,2.2,��
2020/06/18,09:00,0.718,1.021,0.646,1.261,0.905,0.403,0.702,0.653,���쓌,2.8,��
2020/06/18,09:10,0.716,1.019,0.647,1.262,0.904,0.404,0.701,0.653,���쓌,2.8,��
2020/06/18,09:20,0.716,1.022,0.649,1.260,0.906,0.402,0.702,0.652,���쓌,2.5,��
2020/06/18,09:30,0.715,1.020,0.646,1.261,0.904,0.403,0.702,0.652,�쓌,3.1,��
2020/06/18,09:40,0.715,1.020,0.650,1.260,0.904,0.403,0.701,0.652,�쓌,3.4,��
2020/06/18,09:50,0.714,1.019,0.649,1.263,0.901,0.403,0.702,0.654,���쓌,3.2,��
2020/06/18,10:00,0.716,1.019,0.650,1.260,0.901,0.404,0.701,0.653,�쓌,3.6,��
2020/06/18,10:10,0.714,1.017,0.654,1.258,0.899,0.401,0.701,0.652,�쓌,3.2,��
2020/06/18,10:20,0.716,1.018,0.651,1.257,0.904,0.402,0.701,0.652,�쓌,2.8,��
2020/06/18,10:30,0.714,1.018,0.652,1.259,0.905,0.402,0.702,0.653,�쓌,4.0,��
2020/06/18,10:40,0.713,1.020,0.650,1.263,0.907,0.404,0.702,0.651,�쓌,3.7,��
2020/06/18,10:50,0.713,1.021,0.654,1.260,0.906,0.402,0.701,0.652,�쓌,4.2,��
2020/06/18,11:00,0.716,1.015,0.655,1.258,0.907,0.401,0.702,0.653,�쓌,3.6,��
2020/06/18,11:10,0.714,1.016,0.655,1.256,0.907,0.402,0.701,0.652,�쓌,3.6,��
2020/06/18,11:20,0.716,1.021,0.654,1.257,0.904,0.403,0.701,0.652,�쓌,5.1,��
2020/06/18,11:30,0.714,1.022,0.655,1.256,0.906,0.403,0.703,0.652,��쓌,4.5,��
2020/06/18,11:40,0.716,1.022,0.655,1.260,0.906,0.399,0.701,0.653,�쓌,5.8,��
2020/06/18,11:50,0.716,1.023,0.655,1.258,0.907,0.403,0.701,0.653,��쓌,5.9,��
2020/06/18,12:00,0.717,1.027,0.654,1.259,0.906,0.402,0.701,0.652,�쓌,7.2,��
2020/06/18,12:10,0.716,1.027,0.655,1.257,0.906,0.404,0.701,0.653,��쓌,7.8,��
2020/06/18,12:20,0.715,1.028,0.656,1.255,0.905,0.404,0.703,0.653,��쓌,7.7,��
2020/06/18,12:30,0.717,1.030,0.656,1.256,0.907,0.404,0.702,0.652,��쓌,7.1,��
2020/06/18,12:40,0.716,1.029,0.654,1.258,0.906,0.404,0.703,0.652,��쓌,7.7,��
2020/06/18,12:50,0.718,1.027,0.651,1.260,0.906,0.405,0.703,0.653,��쓌,7.3,��
2020/06/18,13:00,0.716,1.026,0.650,1.258,0.909,0.404,0.704,0.653,��쓌,10.2,��
2020/06/18,13:10,0.718,1.025,0.650,1.259,0.909,0.405,0.704,0.651,��쓌,7.9,��
2020/06/18,13:20,0.715,1.027,0.652,1.260,0.905,0.405,0.702,0.652,��쓌,7.1,��
2020/06/18,13:30,0.717,1.025,0.651,1.260,0.906,0.406,0.703,0.652,��쓌,8.4,��
2020/06/18,13:40,0.716,1.024,0.651,1.259,0.906,0.404,0.701,0.651,��쓌,7.8,��
2020/06/18,13:50,0.717,1.021,0.650,1.263,0.904,0.403,0.703,0.652,��쓌,8.0,��
2020/06/18,14:00,0.717,1.024,0.651,1.259,0.908,0.407,0.702,0.654,��쓌,8.2,��
2020/06/18,14:10,0.717,1.028,0.650,1.259,0.908,0.407,0.702,0.652,�쓌,7.7,��
2020/06/18,14:20,0.716,1.025,0.652,1.259,0.908,0.404,0.702,0.654,��쓌,8.1,��
2020/06/18,14:30,0.716,1.026,0.649,1.259,0.910,0.406,0.702,0.652,��쓌,8.4,��
2020/06/18,14:40,0.718,1.023,0.652,1.259,0.909,0.404,0.703,0.653,��쓌,8.2,��
2020/06/18,14:50,0.717,1.027,0.654,1.260,0.908,0.406,0.702,0.654,��쓌,8.7,��
2020/06/18,15:00,0.717,1.026,0.655,1.260,0.908,0.408,0.704,0.652,��쓌,9.2,��
2020/06/18,15:10,0.717,1.028,0.656,1.260,0.908,0.405,0.702,0.651,��쓌,9.4,��
2020/06/18,15:20,0.717,1.029,0.656,1.260,0.909,0.405,0.704,0.653,��쓌,9.9,��
2020/06/18,15:30,0.716,1.027,0.655,1.263,0.909,0.406,0.701,0.655,��쓌,9.4,��
2020/06/18,15:40,0.719,1.028,0.656,1.260,0.908,0.405,0.702,0.653,��쓌,9.8,��
2020/06/18,15:50,0.718,1.027,0.658,1.260,0.909,0.405,0.702,0.652,��쓌,10.2,��
2020/06/18,16:00,0.718,1.030,0.658,1.261,0.907,0.405,0.701,0.652,��쓌,10.6,��
2020/06/18,16:10,0.717,1.029,0.658,1.260,0.906,0.406,0.701,0.654,��쓌,9.1,��
2020/06/18,16:20,0.717,1.030,0.656,1.263,0.907,0.405,0.701,0.653,��쓌,9.9,��
2020/06/18,16:30,0.717,1.030,0.658,1.261,0.909,0.407,0.702,0.652,��쓌,8.7,��
2020/06/18,16:40,0.717,1.029,0.656,1.264,0.908,0.406,0.701,0.653,��쓌,9.0,��
2020/06/18,16:50,0.716,1.029,0.655,1.264,0.908,0.405,0.702,0.652,��쓌,9.0,��
2020/06/18,17:00,0.719,1.031,0.656,1.264,0.907,0.406,0.701,0.653,��쓌,9.0,��
2020/06/18,17:10,0.715,1.031,0.655,1.263,0.907,0.405,0.703,0.652,��쓌,8.5,��
2020/06/18,17:20,0.716,1.029,0.656,1.262,0.908,0.405,0.703,0.653,��쓌,8.7,��
2020/06/18,17:30,0.715,1.029,0.657,1.264,0.908,0.405,0.701,0.654,��쓌,8.4,��
2020/06/18,17:40,0.717,1.028,0.654,1.266,0.906,0.406,0.703,0.653,��쓌,7.2,��
2020/06/18,17:50,0.715,1.029,0.656,1.266,0.907,0.404,0.703,0.656,��,6.9,��
2020/06/18,18:00,0.713,1.028,0.658,1.262,0.908,0.407,0.702,0.655,��,6.9,��
2020/06/18,18:10,0.715,1.031,0.657,1.263,0.907,0.405,0.702,0.656,��,6.9,��
2020/06/18,18:20,0.718,1.032,0.659,1.262,0.908,0.406,0.702,0.655,��쓌,6.8,��
2020/06/18,18:30,0.717,1.030,0.658,1.264,0.906,0.405,0.701,0.656,��쓌,8.3,��
2020/06/18,18:40,0.715,1.031,0.658,1.264,0.909,0.404,0.703,0.655,��,8.4,��
2020/06/18,18:50,0.717,1.030,0.659,1.266,0.908,0.405,0.702,0.656,��쓌,9.5,��
2020/06/18,19:00,0.717,1.031,0.657,1.262,0.909,0.405,0.703,0.655,��쓌,8.2,��
2020/06/18,19:10,0.717,1.031,0.658,1.265,0.906,0.405,0.705,0.658,��,7.2,��
2020/06/18,19:20,0.716,1.029,0.658,1.262,0.908,0.406,0.702,0.656,��쓌,7.2,��
2020/06/18,19:30,0.715,1.029,0.659,1.261,0.906,0.406,0.703,0.656,��,7.2,��
2020/06/18,19:40,0.717,1.030,0.658,1.263,0.907,0.405,0.703,0.657,��,6.6,��
2020/06/18,19:50,0.716,1.030,0.657,1.265,0.906,0.406,0.702,0.656,��,6.6,��
2020/06/18,20:00,0.716,1.032,0.659,1.265,0.908,0.406,0.705,0.656,��,5.9,��
2020/06/18,20:10,0.716,1.033,0.657,1.265,0.908,0.406,0.702,0.656,��,6.2,��
2020/06/18,20:20,0.718,1.034,0.659,1.264,0.909,0.406,0.704,0.656,��,6.3,��
2020/06/18,20:30,0.718,1.032,0.660,1.265,0.910,0.407,0.702,0.654,��,5.1,��
2020/06/18,20:40,0.717,1.033,0.659,1.265,0.910,0.408,0.703,0.656,��,4.9,��
2020/06/18,20:50,0.719,1.032,0.659,1.265,0.911,0.407,0.704,0.655,��,5.2,��
2020/06/18,21:00,0.718,1.033,0.658,1.264,0.910,0.406,0.703,0.656,��,4.6,��
2020/06/18,21:10,0.717,1.034,0.660,1.262,0.909,0.407,0.702,0.655,��,4.7,��
2020/06/18,21:20,0.721,1.034,0.659,1.265,0.912,0.408,0.703,0.655,��,4.2,��
2020/06/18,21:30,0.720,1.034,0.658,1.263,0.911,0.406,0.703,0.655,��,4.6,��
2020/06/18,21:40,0.720,1.035,0.659,1.262,0.911,0.408,0.703,0.656,��,4.8,��
2020/06/18,21:50,0.720,1.033,0.659,1.262,0.911,0.407,0.703,0.655,��,5.0,��
2020/06/18,22:00,0.718,1.033,0.658,1.262,0.908,0.407,0.705,0.656,��,4.8,��
2020/06/18,22:10,0.721,1.032,0.658,1.263,0.912,0.407,0.704,0.656,��,4.7,��
2020/06/18,22:20,0.719,1.034,0.659,1.263,0.910,0.406,0.703,0.655,��,4.8,��
2020/06/18,22:30,0.720,1.033,0.659,1.265,0.913,0.410,0.704,0.655,��,5.1,��
2020/06/18,22:40,0.720,1.031,0.659,1.262,0.913,0.408,0.702,0.654,��,4.2,��
2020/06/18,22:50,0.718,1.033,0.659,1.265,0.911,0.408,0.705,0.656,��,4.5,��
2020/06/18,23:00,0.721,1.031,0.659,1.264,0.911,0.407,0.704,0.656,��,4.6,��
2020/06/18,23:10,0.718,1.033,0.661,1.266,0.912,0.407,0.704,0.655,��,4.2,��
2020/06/18,23:20,0.720,1.032,0.658,1.264,0.911,0.406,0.702,0.655,��,4.2,��
2020/06/18,23:30,0.722,1.032,0.659,1.263,0.912,0.407,0.704,0.656,��,3.7,��
2020/06/18,23:40,0.719,1.034,0.660,1.266,0.913,0.407,0.702,0.655,��,2.3,��
2020/06/18,23:50,0.720,1.033,0.657,1.265,0.912,0.407,0.706,0.656,��쓌,2.0,��
